EW1423 Weather Reports


Display with metric or nautical units.
time (UTC)temp
F
wind
direction
speed
MPH
gust
MPH
rain 1hr
in
rain 24hr
in
rain mn
in
humidity
%
barometer
mb
20260903160304 79 264 1.0 5.0 0.00 0.00 0.00 49 1020.7
20260903155803 80 277 0.0 1.0 0.00 0.00 0.00 48 1020.7
20260903155306 80 270 0.0 1.0 0.00 0.00 0.00 47 1020.7
20260903154804 80 323 0.0 1.0 0.00 0.00 0.00 47 1020.8
20260903154304 80 270 0.0 3.0 0.00 0.00 0.00 47 1020.8
20260903153804 80 297 1.0 6.0 0.00 0.00 0.00 48 1020.9
20260903153303 81 317 1.0 5.0 0.00 0.00 0.00 47 1020.9
20260903152804 81 273 0.0 5.0 0.00 0.00 0.00 47 1020.9
20260903152306 82 285 1.0 5.0 0.00 0.00 0.00 46 1020.9
20260903151804 81 289 0.0 1.0 0.00 0.00 0.00 47 1020.9
20260903151304 81 297 0.0 5.0 0.00 0.00 0.00 48 1020.9
20260903150803 80 291 0.0 1.0 0.00 0.00 0.00 48 1021.1
20260903150304 80 315 1.0 5.0 0.00 0.00 0.00 48 1021.1
20260903145804 81 305 0.0 0.0 0.00 0.00 0.00 48 1021.0
20260903145306 81 308 0.0 1.0 0.00 0.00 0.00 49 1021.0
20260903144803 81 328 0.0 5.0 0.00 0.00 0.00 47 1021.0
20260903144304 81 282 1.0 3.0 0.00 0.00 0.00 46 1021.0
20260903143804 80 311 0.0 3.0 0.00 0.00 0.00 47 1021.0
20260903143303 81 316 0.0 7.0 0.00 0.00 0.00 47 1021.0
20260903142804 81 278 1.0 6.0 0.00 0.00 0.00 46 1021.0
20260903142306 82 282 1.0 5.0 0.00 0.00 0.00 45 1020.8
20260903141804 82 233 2.0 7.0 0.00 0.00 0.00 44 1020.9
20260903141303 81 319 0.0 5.0 0.00 0.00 0.00 47 1020.9
20260903140303 81 349 1.0 5.0 0.00 0.00 0.00 46 1021.0
20260903135803 82 290 2.0 6.0 0.00 0.00 0.00 44 1021.1
20260903135306 82 259 1.0 5.0 0.00 0.00 0.00 46 1021.1
20260903134804 82 144 2.0 7.0 0.00 0.00 0.00 46 1021.1
20260903134303 82 276 2.0 7.0 0.00 0.00 0.00 45 1021.1
20260903133804 82 298 0.0 3.0 0.00 0.00 0.00 45 1021.1
20260903133304 83 3 1.0 5.0 0.00 0.00 0.00 45 1021.1
20260903132803 83 267 0.0 3.0 0.00 0.00 0.00 44 1021.4
20260903132306 84 313 0.0 1.0 0.00 0.00 0.00 42 1021.4
20260903131803 84 339 0.0 3.0 0.00 0.00 0.00 46 1021.4
20260903131304 83 2 1.0 9.0 0.00 0.00 0.00 44 1021.4
20260903130804 82 324 1.0 5.0 0.00 0.00 0.00 48 1021.3
20260903130304 81 268 1.0 5.0 0.00 0.00 0.00 47 1021.3
20260903125305 80 266 0.0 6.0 0.00 0.00 0.00 49 1021.3
20260903124804 80 288 1.0 5.0 0.00 0.00 0.00 48 1021.4
20260903124304 80 275 0.0 0.0 0.00 0.00 0.00 48 1021.4
20260903123804 80 263 0.0 0.0 0.00 0.00 0.00 48 1021.4
20260903123303 80 101 0.0 2.0 0.00 0.00 0.00 48 1021.4
20260903122803 80 11 0.0 1.0 0.00 0.00 0.00 47 1021.4
20260903122305 80 323 1.0 3.0 0.00 0.00 0.00 47 1021.5
20260903121804 81 298 0.0 2.0 0.00 0.00 0.00 47 1021.5
20260903121303 81 328 0.0 1.0 0.00 0.00 0.00 48 1021.5
20260903120804 81 191 0.0 0.0 0.00 0.00 0.00 48 1021.5
20260903115805 80 113 0.0 1.0 0.00 0.00 0.00 50 1021.5
20260903115305 80 258 0.0 3.0 0.00 0.00 0.00 49 1021.7
20260903114805 80 266 1.0 5.0 0.00 0.00 0.00 50 1021.7
20260903114303 79 164 1.0 5.0 0.00 0.00 0.00 49 1021.7
20260903112803 79 247 0.0 2.0 0.00 0.00 0.00 52 1021.9
20260903112305 78 278 0.0 1.0 0.00 0.00 0.00 50 1021.9
20260903111803 79 261 0.0 2.0 0.00 0.00 0.00 51 1022.0
20260903111304 80 267 0.0 3.0 0.00 0.00 0.00 54 1022.0
20260903110804 80 247 0.0 1.0 0.00 0.00 0.00 52 1022.3
20260903110303 80 311 2.0 3.0 0.00 0.00 0.00 50 1022.3
20260903105803 80 247 0.0 2.0 0.00 0.00 0.00 52 1022.3
20260903105306 79 342 0.0 0.0 0.00 0.00 0.00 51 1022.3
20260903104806 80 275 0.0 3.0 0.00 0.00 0.00 52 1022.3
20260903104303 79 174 0.0 3.0 0.00 0.00 0.00 54 1022.4
20260903103803 79 35 0.0 1.0 0.00 0.00 0.00 52 1022.6
20260903103304 78 331 0.0 3.0 0.00 0.00 0.00 54 1022.6
20260903102804 77 319 0.0 0.0 0.00 0.00 0.00 54 1022.6
20260903102305 78 319 0.0 0.0 0.00 0.00 0.00 55 1022.6
20260903101804 78 327 0.0 1.0 0.00 0.00 0.00 55 1022.6
20260903101303 77 271 0.0 1.0 0.00 0.00 0.00 55 1022.7
20260903100305 77 244 1.0 3.0 0.00 0.00 0.00 55 1022.7
20260903095804 77 297 1.0 5.0 0.00 0.00 0.00 53 1022.7
20260903095305 77 260 1.0 5.0 0.00 0.00 0.00 53 1022.7
20260903094803 77 264 1.0 5.0 0.00 0.00 0.00 52 1022.7
20260903094303 77 297 1.0 5.0 0.00 0.00 0.00 54 1022.7
20260903093804 77 250 0.0 5.0 0.00 0.00 0.00 56 1023.1
20260903093304 77 313 1.0 6.0 0.00 0.00 0.00 54 1023.1
20260903092803 76 313 1.0 5.0 0.00 0.00 0.00 56 1023.1
20260903091304 75 296 1.0 5.0 0.00 0.00 0.00 57 1023.1
20260903090804 74 130 0.0 0.0 0.00 0.00 0.00 64 1023.1
20260903090303 73 17 1.0 5.0 0.00 0.00 0.00 64 1023.1
20260903085306 72 35 0.0 3.0 0.00 0.00 0.00 66 1022.9
20260903084804 72 64 1.0 3.0 0.00 0.00 0.00 69 1022.9
20260903084304 71 78 0.0 0.0 0.00 0.00 0.00 70 1022.9
20260903083803 71 78 1.0 3.0 0.00 0.00 0.00 71 1022.9
20260903083303 71 107 0.0 3.0 0.00 0.00 0.00 73 1022.8
20260903082803 70 61 1.0 3.0 0.00 0.00 0.00 73 1023.0
20260903082306 69 53 0.0 0.0 0.00 0.00 0.00 74 1023.0
20260903081803 69 53 0.0 0.0 0.00 0.00 0.00 74 1023.4
20260903081304 68 53 0.0 0.0 0.00 0.00 0.00 75 1023.4
20260903080804 67 53 0.0 0.0 0.00 0.00 0.00 78 1023.4
20260903080303 67 53 0.0 0.0 0.00 0.00 0.00 79 1023.4
20260903075804 67 26 0.0 2.0 0.00 0.00 0.00 79 1023.4
20260903075306 66 135 0.0 0.0 0.00 0.00 0.00 80 1023.4
20260903073803 65 74 0.0 0.0 0.00 0.00 0.00 80 1023.4
20260903073303 65 164 0.0 1.0 0.00 0.00 0.00 81 1023.4
20260903072803 64 130 0.0 0.0 0.00 0.00 0.00 82 1023.4
20260903072306 63 101 0.0 1.0 0.00 0.00 0.00 84 1023.4
20260903071804 63 52 0.0 2.0 0.00 0.00 0.00 84 1023.4
20260903071303 63 121 0.0 0.0 0.00 0.00 0.00 85 1023.4
20260903070804 62 121 0.0 0.0 0.00 0.00 0.00 85 1023.2
20260903065804 61 88 0.0 1.0 0.00 0.00 0.00 86 1023.2
20260903065306 61 99 0.0 0.0 0.00 0.00 0.00 87 1023.2
20260903063804 59 107 0.0 1.0 0.00 0.00 0.00 92 1023.4
20260903063304 58 107 0.0 2.0 0.00 0.00 0.00 94 1023.4
20260903062804 57 186 0.0 1.0 0.00 0.00 0.00 95 1023.3
20260903062306 57 186 0.0 2.0 0.00 0.00 0.00 97 1023.2
20260903061804 56 186 0.0 1.0 0.00 0.00 0.00 98 1023.2
20260903061303 56 226 0.0 2.0 0.00 0.00 0.00 100 1023.2
20260903060804 55 227 0.0 0.0 0.00 0.00 0.00 100 1023.3
20260903060304 55 227 0.0 0.0 0.00 0.00 0.00 100 1023.3
20260903055805 55 227 0.0 1.0 0.00 0.00 0.00 100 1023.3
20260903055306 54 227 0.0 0.0 0.00 0.00 0.00 100 1023.3
20260903054803 54 227 0.0 0.0 0.00 0.00 0.00 100 1023.3
20260903054304 53 227 0.0 0.0 0.00 0.00 0.00 100 1023.3
20260903053803 53 341 0.0 0.0 0.00 0.00 0.00 100 1023.3
20260903052306 52 341 0.0 0.0 0.00 0.00 0.00 100 1023.0
20260903050303 52 341 0.0 0.0 0.00 0.00 0.00 100 1022.5
20260903045804 52 341 0.0 0.0 0.00 0.00 0.00 100 1022.5
20260903045306 53 341 0.0 0.0 0.00 0.00 0.00 100 1022.5
20260903044803 53 341 0.0 0.0 0.00 0.00 0.00 100 1022.5
20260903043804 53 341 0.0 0.0 0.00 0.00 0.00 100 1022.5
20260903043304 53 341 0.0 0.0 0.00 0.00 0.00 100 1022.5
20260903042306 53 341 0.0 0.0 0.00 0.00 0.00 100 1022.5
20260903041803 53 341 0.0 0.0 0.00 0.00 0.00 100 1022.7
20260903041304 52 341 0.0 0.0 0.00 0.00 0.00 100 1022.7
20260903040804 52 341 0.0 0.0 0.00 0.00 0.00 100 1022.9
20260903040303 52 341 0.0 0.0 0.00 0.00 0.00 100 1022.9
20260903035804 53 341 0.0 0.0 0.00 0.00 0.00 100 1022.9
20260903034804 53 341 0.0 0.0 0.00 0.00 0.00 100 1022.8
20260903034304 53 341 0.0 0.0 0.00 0.00 0.00 100 1022.9
20260903033804 53 341 0.0 0.0 0.00 0.00 0.00 100 1022.9
20260903033304 53 341 0.0 0.0 0.00 0.00 0.00 100 1022.9
20260903032804 53 341 0.0 0.0 0.00 0.00 0.00 100 1022.9
20260903031804 53 341 0.0 0.0 0.00 0.00 0.00 100 1022.9
20260903031304 53 341 0.0 0.0 0.00 0.00 0.00 100 1022.9
20260903030804 53 341 0.0 0.0 0.00 0.00 0.00 100 1022.8
20260903030303 54 341 0.0 0.0 0.00 0.00 0.00 100 1022.8
20260903025803 54 341 0.0 0.0 0.00 0.00 0.00 100 1022.8
20260903023804 53 341 0.0 0.0 0.00 0.00 0.00 100 1022.8
20260903023303 53 341 0.0 0.0 0.00 0.00 0.00 100 1022.8
20260903022803 53 341 0.0 0.0 0.00 0.00 0.00 100 1022.8
20260903022306 53 341 0.0 0.0 0.00 0.00 0.00 100 1022.7
20260903020803 53 341 0.0 0.0 0.00 0.00 0.00 100 1022.7
20260903020303 53 341 0.0 0.0 0.00 0.00 0.00 100 1022.7
20260903015803 54 341 0.0 0.0 0.00 0.00 0.00 100 1022.7
20260903015306 54 341 0.0 0.0 0.00 0.00 0.00 100 1022.7
20260903014304 54 341 0.0 0.0 0.00 0.00 0.00 99 1022.7
20260903013803 54 341 0.0 0.0 0.00 0.00 0.00 99 1022.7
20260903013303 54 341 0.0 0.0 0.00 0.00 0.00 99 1022.7
20260903012803 54 341 0.0 0.0 0.00 0.00 0.00 99 1022.7
20260903012306 54 341 0.0 0.0 0.00 0.00 0.00 99 1022.7
20260903011804 54 341 0.0 0.0 0.00 0.00 0.00 99 1022.7
20260903011304 54 341 0.0 0.0 0.00 0.00 0.00 99 1022.7
20260903010804 54 341 0.0 0.0 0.00 0.00 0.00 98 1022.7
20260903010304 54 341 0.0 0.0 0.00 0.00 0.00 99 1022.6
20260903005804 54 341 0.0 0.0 0.00 0.00 0.00 99 1022.6
20260903005306 54 341 0.0 0.0 0.00 0.00 0.00 98 1022.6
20260903004304 55 341 0.0 0.0 0.00 0.00 0.00 98 1022.6
20260903003804 55 341 0.0 0.0 0.00 0.00 0.00 98 1022.6
20260903003303 55 341 0.0 0.0 0.00 0.00 0.00 98 1022.6
20260903002804 55 341 0.0 0.0 0.00 0.00 0.00 98 1022.6
20260903002306 55 341 0.0 0.0 0.00 0.00 0.00 97 1022.6
20260903000803 55 341 0.0 0.0 0.00 0.00 0.00 97 1022.6
20260902235305 55 341 0.0 0.0 0.00 0.00 0.00 97 1022.6
20260902234803 56 341 0.0 0.0 0.00 0.00 0.00 96 1022.6
20260902233804 56 341 0.0 0.0 0.00 0.00 0.00 96 1022.6
20260902233304 56 341 0.0 0.0 0.00 0.00 0.00 95 1022.5
20260902232803 56 341 0.0 0.0 0.00 0.00 0.00 95 1022.5
20260902232306 56 341 0.0 0.0 0.00 0.00 0.00 95 1022.5
20260902231804 56 341 0.0 0.0 0.00 0.00 0.00 95 1022.5
20260902231303 56 341 0.0 0.0 0.00 0.00 0.00 95 1022.5
20260902230804 57 341 0.0 0.0 0.00 0.00 0.00 95 1022.5
20260902225804 57 341 0.0 0.0 0.00 0.00 0.00 94 1022.5
20260902225306 57 341 0.0 0.0 0.00 0.00 0.00 94 1022.4
20260902224804 57 341 0.0 0.0 0.00 0.00 0.00 94 1022.4
20260902224303 57 341 0.0 0.0 0.00 0.00 0.00 94 1022.4
20260902223804 57 341 0.0 0.0 0.00 0.00 0.00 94 1022.4
20260902223304 57 341 0.0 0.0 0.00 0.00 0.00 93 1022.4
20260902222306 58 341 0.0 0.0 0.00 0.00 0.00 93 1022.3
20260902221804 58 341 0.0 0.0 0.00 0.00 0.00 93 1022.3
20260902221303 58 341 0.0 0.0 0.00 0.00 0.00 93 1022.2
20260902220809 58 341 0.0 0.0 0.00 0.00 0.00 92 1022.2
20260902215803 58 341 0.0 0.0 0.00 0.00 0.00 91 1022.2
20260902215306 58 341 0.0 0.0 0.00 0.00 0.00 91 1022.2
20260902214803 59 341 0.0 0.0 0.00 0.00 0.00 91 1022.2
20260902214304 59 341 0.0 0.0 0.00 0.00 0.00 90 1022.2
20260902212803 59 341 0.0 0.0 0.00 0.00 0.00 90 1022.1
20260902211804 59 341 0.0 0.0 0.00 0.00 0.00 89 1022.1
20260902210804 60 341 0.0 0.0 0.00 0.00 0.00 89 1022.0
20260902210303 60 341 0.0 0.0 0.00 0.00 0.00 89 1022.0
20260902205804 60 341 0.0 0.0 0.00 0.00 0.00 88 1022.0
20260902205306 60 341 0.0 0.0 0.00 0.00 0.00 88 1021.9
20260902204804 60 341 0.0 0.0 0.00 0.00 0.00 88 1021.9
20260902203803 61 341 0.0 0.0 0.00 0.00 0.00 87 1021.9
20260902203304 60 341 0.0 0.0 0.00 0.00 0.00 88 1021.7
20260902202803 60 341 0.0 0.0 0.00 0.00 0.00 87 1021.7
20260902201803 60 341 0.0 0.0 0.00 0.00 0.00 87 1021.7
20260902201304 60 341 0.0 0.0 0.00 0.00 0.00 87 1021.7
20260902200803 61 341 0.0 0.0 0.00 0.00 0.00 87 1021.7
20260902200303 61 341 0.0 0.0 0.00 0.00 0.00 86 1021.7
20260902195804 61 341 0.0 0.0 0.00 0.00 0.00 86 1021.4
20260902195306 61 341 0.0 0.0 0.00 0.00 0.00 86 1021.4
20260902194804 61 341 0.0 0.0 0.00 0.00 0.00 85 1021.4
20260902194303 61 341 0.0 0.0 0.00 0.00 0.00 85 1021.4
20260902193804 62 341 0.0 0.0 0.00 0.00 0.00 85 1021.4
20260902193304 62 341 0.0 0.0 0.00 0.00 0.00 85 1021.4
20260902192804 62 341 0.0 0.0 0.00 0.00 0.00 84 1021.4
20260902192306 63 341 0.0 0.0 0.00 0.00 0.00 84 1021.4
20260902191804 63 341 0.0 0.0 0.00 0.00 0.00 83 1021.4
20260902191304 63 341 0.0 0.0 0.00 0.00 0.00 83 1021.4
20260902190804 63 341 0.0 0.0 0.00 0.00 0.00 82 1021.4
20260902185803 63 341 0.0 0.0 0.00 0.00 0.00 82 1021.2
20260902185306 64 341 0.0 0.0 0.00 0.00 0.00 81 1021.0
20260902184803 64 341 0.0 0.0 0.00 0.00 0.00 81 1021.0
20260902184304 64 341 0.0 0.0 0.00 0.00 0.00 80 1020.8
20260902183803 64 341 0.0 0.0 0.00 0.00 0.00 80 1020.8
20260902182803 65 341 0.0 0.0 0.00 0.00 0.00 79 1020.8
20260902182306 66 341 0.0 0.0 0.00 0.00 0.00 78 1020.8
20260902181803 66 341 0.0 0.0 0.00 0.00 0.00 76 1020.8
20260902180804 67 341 0.0 0.0 0.00 0.00 0.00 74 1020.6
20260902180304 68 341 0.0 0.0 0.00 0.00 0.00 74 1020.6
20260902175803 69 341 0.0 0.0 0.00 0.00 0.00 71 1020.6
20260902175307 69 341 0.0 0.0 0.00 0.00 0.00 71 1020.3
20260902174803 70 341 0.0 0.0 0.00 0.00 0.00 69 1020.3
20260902174303 70 341 0.0 0.0 0.00 0.00 0.00 68 1020.3
20260902173303 71 341 0.0 0.0 0.00 0.00 0.00 64 1020.3
20260902172804 72 341 0.0 2.0 0.00 0.00 0.00 64 1020.3
20260902172308 72 341 0.0 1.0 0.00 0.00 0.00 62 1020.3
20260902171803 72 341 0.0 2.0 0.00 0.00 0.00 62 1020.3
20260902171303 73 36 0.0 1.0 0.00 0.00 0.00 61 1020.3
20260902170303 73 27 0.0 2.0 0.00 0.00 0.00 59 1020.2
20260902165308 74 299 0.0 0.0 0.00 0.00 0.00 58 1020.2
20260902164804 74 336 1.0 5.0 0.00 0.00 0.00 57 1020.2
20260902164303 74 256 1.0 2.0 0.00 0.00 0.00 57 1020.2
20260902163803 75 317 1.0 5.0 0.00 0.00 0.00 57 1020.3
20260902163304 75 302 0.0 6.0 0.00 0.00 0.00 56 1020.3
20260902162804 76 262 0.0 3.0 0.00 0.00 0.00 55 1020.3
20260902162307 76 302 0.0 5.0 0.00 0.00 0.00 54 1020.2
20260902161804 77 321 1.0 5.0 0.00 0.00 0.00 53 1020.2
20260902161304 77 293 0.0 1.0 0.00 0.00 0.00 54 1020.2